Weather History for McGuire AFB, NJ

Change the Weather History Date:

Tuesday, May 14, 2013

  Actual Average Record
Temperature  
Mean Temperature 49 °F -  
Max Temperature 61 °F 69 °F 80 °F (2005)
Min Temperature 38 °F 48 °F 38 °F (2013)
Degree Days  
Heating Degree Days 16    
Moisture  
Dew Point 30 °F    
Average Humidity 50    
Maximum Humidity 78    
Minimum Humidity 25    
Precipitation  
Precipitation 0.00 in - - ()
Sea Level Pressure  
Sea Level Pressure 30.10 in    
Wind  
Wind Speed 7 mph (WNW)    
Max Wind Speed 16 mph    
Max Gust Speed 20 mph    
Visibility 10 miles    
Events      
Averages and records for this station are not official NWS values.
T = Trace of Precipitation, MM = Missing Value Source: NWS Daily Summary

Daily Weather History Graph

Daily Weather History Graph

Search for Another Location

Airport:

Trip Planner

Search our weather history database for the weather conditions in past years. The results will help you decide how hot, cold, wet, or windy it might be!

Date:

Astronomy

May. 14, 2013 Rise Set
Actual Time 5:43 AM EDT 8:06 PM EDT
Civil Twilight 5:13 AM EDT 8:36 PM EDT
Nautical Twilight 4:35 AM EDT 9:14 PM EDT
Astronomical Twilight 3:53 AM EDT 9:56 PM EDT
Moon 9:21 AM EDT (5/14) 11:51 PM EDT (5/14)
Length of Visible Light 15h 23m
Length of Day
14h 22m
Waxing Crescent, 19% of the Moon is Illuminated
May 14
Waxing Crescent
May 18
First Quarter
May 25
Full
May 31
Last Quarter
Jun 8
New

Hourly Weather History & Observations

Time (EDT) Temp. Windchill Dew Point Humidity Pressure Visibility Wind Dir Wind Speed Gust Speed Precip Events Conditions
12:58 AM 42.6 °F 38.4 °F 31.1 °F 64% 30.12 in 10.0 mi NNW 6.9 mph - N/A   Clear
1:58 AM 41.2 °F 37.3 °F 31.5 °F 68% 30.12 in 10.0 mi NW 5.8 mph - N/A   Clear
2:58 AM 40.3 °F 35.5 °F 31.8 °F 72% 30.13 in 10.0 mi NW 6.9 mph - N/A   Clear
3:58 AM 40.3 °F 38.2 °F 32.4 °F 73% 30.12 in 10.0 mi NNW 3.5 mph - N/A   Clear
4:58 AM 39.2 °F 35.9 °F 32.2 °F 76% 30.12 in 10.0 mi NW 4.6 mph - N/A   Clear
5:58 AM 38.5 °F 34.1 °F 32.0 °F 78% 30.14 in 10.0 mi WNW 5.8 mph - N/A   Clear
6:41 AM 41.0 °F 37.1 °F 32.0 °F 70% 30.13 in 9.0 mi WNW 5.8 mph - N/A   Clear
6:50 AM 41.0 °F 38.0 °F 32.0 °F 70% 30.13 in 10.0 mi WNW 4.6 mph - N/A   Clear
6:58 AM 41.7 °F 37.3 °F 32.9 °F 71% 30.14 in 10.0 mi WNW 6.9 mph - 0.00 in   Clear
7:58 AM 45.7 °F 41.5 °F 33.3 °F 62% 30.15 in 10.0 mi NNW 8.1 mph - N/A   Clear
8:58 AM 49.3 °F - 31.1 °F 50% 30.14 in 10.0 mi NNW 6.9 mph - N/A   Clear
9:58 AM 52.3 °F - 29.8 °F 42% 30.14 in 10.0 mi Variable 6.9 mph - N/A   Clear
10:58 AM 54.3 °F - 27.3 °F 35% 30.13 in 10.0 mi WNW 10.4 mph 18.4 mph N/A   Clear
11:58 AM 55.2 °F - 26.6 °F 33% 30.12 in 10.0 mi West 5.8 mph - N/A   Clear
12:58 PM 56.8 °F - 27.9 °F 33% 30.12 in 10.0 mi West 10.4 mph - N/A   Mostly Cloudy
1:58 PM 58.1 °F - 27.7 °F 31% 30.10 in 10.0 mi NW 4.6 mph 17.3 mph N/A   Mostly Cloudy
2:58 PM 59.2 °F - 27.1 °F 29% 30.09 in 10.0 mi WNW 6.9 mph - N/A   Overcast
3:48 PM 60.8 °F - 28.4 °F 29% 30.06 in 10.0 mi WNW 16.1 mph 19.6 mph N/A   Mostly Cloudy
3:58 PM 60.4 °F - 27.3 °F 28% 30.06 in 10.0 mi North 8.1 mph 17.3 mph N/A   Scattered Clouds
4:58 PM 60.8 °F - 26.6 °F 27% 30.06 in 10.0 mi WSW 11.5 mph - N/A   Clear
5:58 PM 60.1 °F - 24.1 °F 25% 30.04 in 10.0 mi West 6.9 mph - N/A   Clear
6:58 PM 59.0 °F - 25.3 °F 28% 30.05 in 10.0 mi West 9.2 mph - N/A   Clear
7:58 PM 56.3 °F - 27.5 °F 33% 30.05 in 10.0 mi WSW 6.9 mph - N/A   Clear
8:58 PM 50.7 °F - 32.4 °F 49% 30.05 in 10.0 mi SW 4.6 mph - N/A   Clear
9:58 PM 47.8 °F - 34.0 °F 59% 30.07 in 10.0 mi Calm Calm - N/A   Clear
10:58 PM 46.2 °F 45.0 °F 32.7 °F 59% 30.09 in 10.0 mi South 3.5 mph - N/A   Clear
11:58 PM 46.8 °F - 32.4 °F 57% 30.08 in 10.0 mi South 4.6 mph - N/A   Mostly Cloudy